K7D3 Weather Reports


time (UTC)temp
F
wind
direction
speed
knots
gust
knots
rain 1hr
in
rain 24hr
in
rain mn
in
humidity
%
barometer
mb
20260509102035 53 246 5.2 5.2 0.00 0.00 0.00 82
20260509101236 53 250 6.1 6.1 0.00 0.00 0.00 82
20260509100434 53 253 5.2 4.3 0.00 0.00 0.00 81
20260509095634 52 238 8.7 7.0 0.00 0.00 0.00 81
20260509094834 53 236 7.0 6.1 0.00 0.00 0.00 79
20260509094032 53 225 5.2 6.1 0.00 0.00 0.00 78
20260509093233 53 243 8.7 8.7 0.00 0.00 0.00 78
20260509092434 53 249 7.8 6.1 0.00 0.00 0.00 76
20260509091632 53 225 7.8 7.8 0.00 0.00 0.00 76
20260509090833 53 257 5.2 4.3 0.00 0.00 0.00 74
20260509090034 53 280 6.1 6.1 0.00 0.00 0.00 73
20260509085231 53 229 7.0 7.0 0.00 0.00 0.00 71
20260509084432 52 239 6.1 5.2 0.00 0.00 0.00 70
20260509083633 52 249 7.0 7.0 0.00 0.00 0.00 67
20260509082831 53 245 4.3 4.3 0.00 0.00 0.00 65
20260509082032 53 248 7.0 7.0 0.00 0.00 0.00 62
20260509081232 53 245 6.1 5.2 0.00 0.00 0.00 60
20260509080430 53 256 7.0 10.4 0.00 0.00 0.00 57
20260509075631 53 262 6.1 7.0 0.00 0.00 0.00 54
20260509074832 53 232 6.1 8.7 0.00 0.00 0.00 50
20260509074030 53 212 7.0 5.2 0.00 0.00 0.00 48
20260509073230 53 255 8.7 7.8 0.00 0.00 0.00 47
20260509072431 54 217 7.8 7.8 0.00 0.00 0.00 46
20260509071629 54 249 8.7 8.7 0.00 0.00 0.00 44
20260509070829 53 256 7.0 7.8 0.00 0.00 0.00 43
20260509070030 52 257 7.0 6.1 0.00 0.00 0.00 42
20260509065227 52 229 6.1 4.3 0.00 0.00 0.00 41
20260509064428 52 183 3.5 0.0 0.00 0.00 0.00 40
20260509063629 50 219 1.7 4.3 0.00 0.00 0.00 41
20260509062826 48 198 0.0 0.0 0.00 0.00 0.00 49
20260509062027 47 198 0.0 0.0 0.00 0.00 0.00 54
20260509061228 47 198 0.0 0.0 0.00 0.00 0.00 56
20260509060422 45 211 0.0 0.0 0.00 0.00 0.00 58
20260509055622 45 211 0.0 0.0 0.00 0.00 0.00 64
20260509054823 45 211 0.0 0.0 0.00 0.00 0.00 60
20260509054020 45 211 0.0 0.0 0.00 0.00 0.00 61
20260509053221 45 211 0.0 0.0 0.00 0.00 0.00 61
20260509052422 45 211 0.0 0.0 0.00 0.00 0.00 61
20260509051619 45 211 0.0 0.0 0.00 0.00 0.00 57
20260509050820 45 211 0.0 0.0 0.00 0.00 0.00 55
20260509050020 46 211 0.0 0.0 0.00 0.00 0.00 54
20260509045216 47 211 0.0 0.0 0.00 0.00 0.00 53
20260509044417 48 211 0.0 0.0 0.00 0.00 0.00 50
20260509043618 48 211 0.0 0.0 0.00 0.00 0.00 47
20260509042815 50 211 0.0 0.0 0.00 0.00 0.00 44
20260509042016 50 211 0.0 0.0 0.00 0.00 0.00 42
20260509041217 49 211 0.0 0.0 0.00 0.00 0.00 44
20260509040414 47 211 0.0 0.0 0.00 0.00 0.00 52
20260509035615 47 211 0.0 0.0 0.00 0.00 0.00 52
20260509034816 47 211 0.0 0.0 0.00 0.00 0.00 56
20260509034014 47 211 0.0 0.0 0.00 0.00 0.00 54
20260509033214 46 211 0.0 0.0 0.00 0.00 0.00 52
20260509032413 45 211 0.0 0.0 0.00 0.00 0.00 56
20260509031611 46 211 0.0 0.0 0.00 0.00 0.00 54
20260509030812 46 211 0.0 0.0 0.00 0.00 0.00 52
20260509030012 46 211 0.0 0.0 0.00 0.00 0.00 50
20260509025210 47 211 0.0 0.0 0.00 0.00 0.00 48
20260509024411 47 211 0.0 0.0 0.00 0.00 0.00 48
20260509023612 47 211 0.0 0.0 0.00 0.00 0.00 46
20260509022807 47 211 0.0 0.0 0.00 0.00 0.00 46
20260509022008 48 211 0.0 0.0 0.00 0.00 0.00 45
20260509021209 49 211 0.0 0.0 0.00 0.00 0.00 44
20260509020406 50 211 0.0 0.0 0.00 0.00 0.00 42
20260509015607 52 211 0.0 0.0 0.00 0.00 0.00 40
20260509014809 54 211 0.0 0.0 0.00 0.00 0.00 36
20260509014003 55 211 0.0 0.0 0.00 0.00 0.00 35
20260509013205 56 211 1.7 0.0 0.00 0.00 0.00 33
20260509012406 56 205 0.0 0.0 0.00 0.00 0.00 32
20260509011604 57 203 0.0 3.5 0.00 0.00 0.00 30
20260509010805 57 236 3.5 2.6 0.00 0.00 0.00 30
20260509010006 57 229 4.3 3.5 0.00 0.00 0.00 30
20260509005204 58 233 4.3 2.6 0.00 0.00 0.00 29
20260509004405 59 231 5.2 4.3 0.00 0.00 0.00 29
20260509003606 59 243 6.1 5.2 0.00 0.00 0.00 29
20260509002804 60 262 5.2 2.6 0.00 0.00 0.00 28
20260509002005 59 255 4.3 4.3 0.00 0.00 0.00 28
20260509001202 60 235 6.1 6.1 0.00 0.00 0.00 27
20260509000400 59 263 6.1 6.1 0.00 0.00 0.00 27
20260508235601 60 249 6.1 7.0 0.00 0.00 0.00 26
20260508234802 60 271 5.2 4.3 0.00 0.00 0.00 27
20260508234000 60 312 5.2 4.3 0.00 0.00 0.00 25
20260508233201 61 278 6.1 7.0 0.00 0.00 0.00 25
20260508232402 60 321 6.1 6.1 0.00 0.00 0.00 26
20260508231600 61 285 8.7 12.2 0.00 0.00 0.00 25
20260508230802 61 274 8.7 9.6 0.00 0.00 0.00 25
20260508230003 62 288 11.3 7.8 0.00 0.00 0.00 24
20260508225201 62 245 6.1 4.3 0.00 0.00 0.00 24
20260508224401 61 291 10.4 9.6 0.00 0.00 0.00 24
20260508223603 63 259 5.2 7.0 0.00 0.00 0.00 23
20260508222801 63 260 8.7 9.6 0.00 0.00 0.00 24
20260508222002 62 323 4.3 4.3 0.00 0.00 0.00 23
20260508221204 62 319 11.3 7.8 0.00 0.00 0.00 23
20260508220401 62 256 8.7 9.6 0.00 0.00 0.00 23
20260508215603 63 255 5.2 12.2 0.00 0.00 0.00 23
20260508214804 63 264 7.8 9.6 0.00 0.00 0.00 23
20260508214002 63 242 10.4 7.0 0.00 0.00 0.00 23
20260508213203 64 305 0.9 0.0 0.00 0.00 0.00 23
20260508212404 62 256 9.6 7.8 0.00 0.00 0.00 22
20260508211602 64 353 7.0 6.1 0.00 0.00 0.00 24
20260508210804 64 309 4.3 6.1 0.00 0.00 0.00 22
20260508210005 63 297 6.1 5.2 0.00 0.00 0.00 24
20260508205203 62 271 7.8 7.0 0.00 0.00 0.00 23
20260508204405 62 276 7.8 12.2 0.00 0.00 0.00 22
20260508203606 61 311 7.8 2.6 0.00 0.00 0.00 23
20260508202804 62 295 2.6 0.0 0.00 0.00 0.00 25
20260508202006 61 301 7.0 6.1 0.00 0.00 0.00 23
20260508201207 61 267 8.7 7.8 0.00 0.00 0.00 24
20260508200405 62 322 6.1 3.5 0.00 0.00 0.00 25
20260508195604 61 277 9.6 7.0 0.00 0.00 0.00 23
20260508194806 62 259 2.6 5.2 0.00 0.00 0.00 23
20260508194002 62 300 7.8 7.8 0.00 0.00 0.00 21
20260508193200 61 301 8.7 6.1 0.00 0.00 0.00 23
20260508192402 61 291 3.5 0.0 0.00 0.00 0.00 25
20260508191559 60 277 10.4 6.1 0.00 0.00 0.00 23
20260508190801 61 308 7.8 8.7 0.00 0.00 0.00 22
20260508190002 62 60 6.1 6.1 0.00 0.00 0.00 24
20260508185200 61 15 9.6 5.2 0.00 0.00 0.00 23
20260508184402 61 260 6.1 8.7 0.00 0.00 0.00 24
20260508183603 60 316 7.0 5.2 0.00 0.00 0.00 25
20260508182801 60 270 3.5 7.0 0.00 0.00 0.00 24
20260508182002 60 332 7.8 13.0 0.00 0.00 0.00 23
20260508181204 61 264 3.5 1.7 0.00 0.00 0.00 23
20260508180401 61 328 7.0 7.8 0.00 0.00 0.00 24
20260508175602 61 66 3.5 1.7 0.00 0.00 0.00 25
20260508174804 62 332 6.1 6.1 0.00 0.00 0.00 25
20260508174002 59 308 7.0 4.3 0.00 0.00 0.00 25
20260508173203 60 250 9.6 0.0 0.00 0.00 0.00 24
20260508172405 60 6 7.8 8.7 0.00 0.00 0.00 25
20260508171603 60 329 5.2 6.1 0.00 0.00 0.00 25
20260508170804 61 259 0.9 7.0 0.00 0.00 0.00 25
20260508170006 59 329 7.8 4.3 0.00 0.00 0.00 26
20260508165204 58 11 7.8 7.0 0.00 0.00 0.00 25
20260508164405 60 231 7.0 8.7 0.00 0.00 0.00 26
20260508163607 59 226 2.6 0.0 0.00 0.00 0.00 27
20260508162805 59 312 0.0 0.0 0.00 0.00 0.00 29
20260508162006 58 270 8.7 14.8 0.00 0.00 0.00 27
20260508161208 60 266 7.8 5.2 0.00 0.00 0.00 28
20260508160406 58 260 12.2 5.2 0.00 0.00 0.00 31
20260508155608 57 285 8.7 12.2 0.00 0.00 0.00 31
20260508154809 57 278 7.0 10.4 0.00 0.00 0.00 31
20260508154003 57 239 9.6 9.6 0.00 0.00 0.00 31
20260508153205 58 276 8.7 7.8 0.00 0.00 0.00 32
20260508152406 57 283 1.7 0.0 0.00 0.00 0.00 30
20260508151604 57 312 7.0 8.7 0.00 0.00 0.00 32
20260508150805 56 222 8.7 5.2 0.00 0.00 0.00 33
20260508150007 55 284 7.8 2.6 0.00 0.00 0.00 37
20260508145205 54 245 8.7 7.8 0.00 0.00 0.00 38
20260508144406 55 277 9.6 8.7 0.00 0.00 0.00 37
20260508143608 53 259 8.7 9.6 0.00 0.00 0.00 38
20260508142806 53 256 8.7 9.6 0.00 0.00 0.00 39
20260508142007 53 260 9.6 8.7 0.00 0.00 0.00 42
20260508141208 53 238 8.7 8.7 0.00 0.00 0.00 45
20260508140406 52 293 9.6 11.3 0.00 0.00 0.00 45
20260508135607 50 257 9.6 7.8 0.00 0.00 0.00 48
20260508134808 51 263 7.0 5.2 0.00 0.00 0.00 51
20260508134006 50 309 4.3 4.3 0.00 0.00 0.00 54
20260508133208 50 274 8.7 4.3 0.00 0.00 0.00 55
20260508132409 48 248 7.0 7.8 0.00 0.00 0.00 58
20260508131606 48 277 6.1 8.7 0.00 0.00 0.00 58
20260508130808 47 246 6.1 4.3 0.00 0.00 0.00 64
20260508130009 45 294 0.0 3.5 0.00 0.00 0.00 72
20260508125206 43 349 0.0 0.0 0.00 0.00 0.00 79
20260508124407 41 349 0.0 0.0 0.00 0.00 0.00 85
20260508123608 39 349 0.0 0.0 0.00 0.00 0.00 89
20260508122806 38 349 0.0 0.0 0.00 0.00 0.00 91
20260508122007 37 349 0.0 0.0 0.00 0.00 0.00 93
20260508121203 36 349 0.0 0.0 0.00 0.00 0.00 94
20260508120400 35 349 0.0 0.0 0.00 0.00 0.00 94
20260508115601 33 349 0.0 0.0 0.00 0.00 0.00 95
20260508114801 32 349 0.0 0.0 0.00 0.00 0.00 95
20260508113958 31 349 0.0 0.0 0.00 0.00 0.00 95
20260508113159 28 349 0.0 0.0 0.00 0.00 0.00 95
20260508112400 29 349 0.0 0.0 0.00 0.00 0.00 96
20260508111554 24 349 0.0 0.0 0.00 0.00 0.00 95
20260508110751 25 349 0.0 0.0 0.00 0.00 0.00 95
20260508105951 25 349 0.0 0.0 0.00 0.00 0.00 95
20260508105147 23 349 0.0 0.0 0.00 0.00 0.00 95
20260508104347 24 349 0.0 0.0 0.00 0.00 0.00 95
20260508103548 23 349 0.0 0.0 0.00 0.00 0.00 96
20260508102744 23 349 0.0 0.0 0.00 0.00 0.00 96